timestamp,wind_dir_avg,wind_spd_avg,wind_spd_max_dir,wind_spd_gust,battery_voltage,lat,long
2023-01-13 00:04:00+00:00,322.0,4.84,320.0,6.18,12.41,47.59359,-54.27349
2023-01-13 00:14:00+00:00,336.0,3.35,312.0,5.1,12.33,47.59359,-54.27349
2023-01-13 00:24:00+00:00,3.0,3.54,329.0,4.81,12.33,47.59359,-54.27349
2023-01-13 00:34:00+00:00,4.0,4.66,15.0,5.54,12.33,47.59359,-54.27349
2023-01-13 00:44:00+00:00,8.0,3.91,322.0,5.19,12.33,47.59359,-54.27349
2023-01-13 00:54:00+00:00,23.0,2.39,21.0,3.12,12.33,47.59359,-54.27349
2023-01-13 01:04:00+00:00,15.0,3.16,38.0,3.95,12.33,47.59359,-54.27349
2023-01-13 01:14:00+00:00,15.0,2.07,336.0,3.01,12.33,47.59359,-54.27349
2023-01-13 01:24:00+00:00,345.0,2.77,306.0,4.6,12.33,47.59359,-54.27349
2023-01-13 01:34:00+00:00,20.0,2.33,20.0,3.17,12.33,47.59359,-54.27349
2023-01-13 01:44:00+00:00,22.0,1.51,297.0,3.65,12.33,47.59359,-54.27349
2023-01-13 01:54:00+00:00,25.0,2.06,20.0,3.35,12.33,47.59359,-54.27349
2023-01-13 02:04:00+00:00,28.0,1.86,44.0,2.91,12.33,47.59359,-54.27349
2023-01-13 02:14:00+00:00,7.0,2.5,321.0,3.37,12.25,47.59359,-54.27349
2023-01-13 02:24:00+00:00,28.0,1.83,298.0,4.11,12.25,47.59359,-54.27349
2023-01-13 02:34:00+00:00,9.0,2.75,15.0,3.5,12.25,47.59359,-54.27349
2023-01-13 02:44:00+00:00,10.0,3.41,19.0,3.9,12.25,47.59359,-54.27349
2023-01-13 02:54:00+00:00,7.0,2.63,328.0,3.69,12.25,47.59359,-54.27349
2023-01-13 03:04:00+00:00,18.0,3.57,26.0,4.19,12.25,47.59359,-54.27349
2023-01-13 03:14:00+00:00,9.0,3.41,14.0,4.77,12.25,47.59359,-54.27349
2023-01-13 03:24:00+00:00,7.0,3.3,311.0,4.55,12.25,47.59359,-54.27349
2023-01-13 03:34:00+00:00,0.0,3.7,326.0,5.16,12.25,47.59359,-54.27349
2023-01-13 03:44:00+00:00,12.0,3.95,355.0,4.65,12.25,47.59359,-54.27349
2023-01-13 03:54:00+00:00,359.0,3.99,324.0,4.8,12.25,47.59359,-54.27349
2023-01-13 04:04:00+00:00,6.0,3.92,330.0,5.1,12.25,47.59359,-54.27349
2023-01-13 04:14:00+00:00,352.0,3.92,322.0,5.9,12.25,47.59359,-54.27349
2023-01-13 04:24:00+00:00,15.0,4.27,23.0,5.27,12.25,47.59359,-54.27349
2023-01-13 04:34:00+00:00,13.0,3.55,26.0,4.48,12.25,47.59359,-54.27349
2023-01-13 04:44:00+00:00,6.0,3.33,345.0,4.2,12.25,47.59359,-54.27349
2023-01-13 04:54:00+00:00,5.0,3.62,343.0,5.03,12.25,47.59359,-54.27349
2023-01-13 05:04:00+00:00,346.0,3.33,316.0,5.37,12.25,47.59359,-54.27349
2023-01-13 05:14:00+00:00,10.0,3.37,34.0,4.29,12.17,47.59359,-54.27349
2023-01-13 05:24:00+00:00,3.0,4.34,23.0,5.37,12.17,47.59359,-54.27349
2023-01-13 05:34:00+00:00,356.0,4.47,356.0,4.95,12.17,47.59359,-54.27349
2023-01-13 05:44:00+00:00,349.0,4.28,347.0,4.89,12.17,47.59359,-54.27349
2023-01-13 05:54:00+00:00,6.0,3.57,27.0,4.61,12.17,47.59359,-54.27349
2023-01-13 06:04:00+00:00,347.0,3.54,343.0,4.1,12.17,47.59359,-54.27349
2023-01-13 06:14:01+00:00,354.0,4.42,351.0,5.07,12.17,47.59359,-54.27349
2023-01-13 06:24:01+00:00,353.0,3.4,352.0,4.0,12.17,47.59359,-54.27349
2023-01-13 06:34:01+00:00,5.0,2.95,37.0,4.03,12.17,47.59359,-54.27349
2023-01-13 06:44:01+00:00,339.0,2.56,303.0,4.49,12.17,47.59359,-54.27349
2023-01-13 06:54:01+00:00,317.0,2.61,301.0,4.49,12.17,47.59359,-54.27349
2023-01-13 07:04:01+00:00,296.0,3.43,293.0,4.4,12.17,47.59359,-54.27349
2023-01-13 07:14:00+00:00,319.0,1.64,292.0,4.32,12.17,47.59359,-54.27349
2023-01-13 07:24:00+00:00,282.0,3.59,288.0,4.74,12.17,47.59359,-54.27349
2023-01-13 07:34:00+00:00,287.0,3.0,284.0,4.34,12.17,47.59359,-54.27349
2023-01-13 07:44:00+00:00,282.0,4.2,283.0,4.8,12.17,47.59359,-54.27349
2023-01-13 07:54:00+00:00,305.0,3.37,301.0,4.65,12.17,47.59359,-54.27349
2023-01-13 08:04:00+00:00,303.0,4.56,300.0,5.05,12.17,47.59359,-54.27349
2023-01-13 08:14:01+00:00,298.0,5.09,289.0,6.3,12.17,47.59359,-54.27349
2023-01-13 08:24:01+00:00,330.0,3.02,305.0,4.73,12.17,47.59359,-54.27349
2023-01-13 08:34:01+00:00,304.0,4.64,300.0,5.77,12.17,47.59359,-54.27349
2023-01-13 08:44:01+00:00,290.0,4.31,282.0,4.9,12.17,47.59359,-54.27349
2023-01-13 08:54:01+00:00,309.0,3.24,302.0,4.71,12.17,47.59359,-54.27349
2023-01-13 09:04:01+00:00,279.0,6.85,277.0,8.47,12.17,47.59359,-54.27349
2023-01-13 09:14:00+00:00,283.0,5.76,283.0,7.17,12.17,47.59359,-54.27349
2023-01-13 09:24:00+00:00,272.0,6.09,268.0,7.72,12.17,47.59359,-54.27349
2023-01-13 09:34:00+00:00,266.0,6.99,268.0,7.7,12.17,47.59359,-54.27349
2023-01-13 09:44:00+00:00,264.0,4.7,274.0,5.99,12.17,47.59359,-54.27349
2023-01-13 09:54:00+00:00,260.0,5.76,255.0,6.51,12.17,47.59359,-54.27349
2023-01-13 10:04:00+00:00,278.0,4.74,275.0,6.14,12.17,47.59359,-54.27349
2023-01-13 10:14:00+00:00,286.0,4.22,282.0,4.94,12.17,47.59359,-54.27349
2023-01-13 10:24:00+00:00,297.0,2.88,302.0,4.26,12.17,47.59359,-54.27349
2023-01-13 10:34:00+00:00,318.0,3.33,314.0,4.53,12.17,47.59359,-54.27349
2023-01-13 10:44:00+00:00,321.0,1.97,322.0,2.75,12.17,47.59359,-54.27349
2023-01-13 10:54:00+00:00,308.0,2.11,300.0,3.05,12.17,47.59359,-54.27349
2023-01-13 11:04:00+00:00,321.0,1.84,324.0,2.42,12.17,47.59359,-54.27349
2023-01-13 11:14:00+00:00,310.0,2.07,329.0,2.98,12.09,47.59359,-54.27349
2023-01-13 11:24:00+00:00,316.0,1.25,325.0,1.79,12.09,47.59359,-54.27349
2023-01-13 11:34:00+00:00,289.0,4.92,295.0,6.45,12.09,47.59359,-54.27349
2023-01-13 11:44:00+00:00,276.0,4.9,271.0,6.12,12.09,47.59359,-54.27349
2023-01-13 11:54:00+00:00,271.0,6.43,276.0,7.51,12.09,47.59359,-54.27349
2023-01-13 12:04:00+00:00,273.0,6.8,270.0,7.48,12.09,47.59359,-54.27349
2023-01-13 12:14:00+00:00,273.0,6.59,284.0,7.3,12.17,47.59359,-54.27349
2023-01-13 12:24:00+00:00,270.0,5.77,269.0,6.94,12.17,47.59359,-54.27349
2023-01-13 12:34:00+00:00,268.0,5.5,271.0,7.11,12.17,47.59359,-54.27349
2023-01-13 12:44:00+00:00,264.0,6.87,263.0,7.61,12.17,47.59359,-54.27349
2023-01-13 12:54:00+00:00,259.0,6.91,259.0,7.65,12.17,47.59359,-54.27349
2023-01-13 13:04:00+00:00,252.0,7.08,251.0,7.73,12.17,47.59359,-54.27349
2023-01-13 13:14:00+00:00,259.0,4.6,260.0,6.22,12.81,47.59359,-54.27349
2023-01-13 13:24:00+00:00,262.0,5.5,265.0,6.34,12.81,47.59359,-54.27349
2023-01-13 13:34:00+00:00,276.0,5.56,278.0,6.82,12.81,47.59359,-54.27349
2023-01-13 13:44:00+00:00,273.0,3.85,285.0,6.14,12.81,47.59359,-54.27349
2023-01-13 13:54:00+00:00,293.0,4.09,290.0,5.99,12.81,47.59359,-54.27349
2023-01-13 14:04:00+00:00,312.0,3.55,313.0,5.03,12.81,47.59359,-54.27349
2023-01-13 14:14:00+00:00,305.0,3.71,299.0,5.82,13.29,47.59359,-54.27349
2023-01-13 14:24:00+00:00,336.0,3.01,338.0,3.87,13.29,47.59359,-54.27349
2023-01-13 14:34:00+00:00,341.0,3.47,313.0,4.55,13.29,47.59359,-54.27349
2023-01-13 14:44:00+00:00,346.0,2.34,354.0,3.27,13.29,47.59359,-54.27349
2023-01-13 14:54:00+00:00,315.0,2.87,290.0,6.34,13.29,47.59359,-54.27349
2023-01-13 15:04:00+00:00,310.0,2.34,290.0,5.04,13.29,47.59359,-54.27349
2023-01-13 15:14:00+00:00,296.0,0.88,307.0,1.32,13.44,47.59359,-54.27349
2023-01-13 15:24:00+00:00,298.0,1.9,278.0,5.99,13.44,47.59359,-54.27349
2023-01-13 15:34:00+00:00,264.0,2.72,253.0,5.96,13.44,47.59359,-54.27349
2023-01-13 15:44:00+00:00,234.0,0.95,222.0,1.18,13.44,47.59359,-54.27349
2023-01-13 15:54:00+00:00,230.0,1.44,259.0,5.53,13.44,47.59359,-54.27349
2023-01-13 16:04:00+00:00,218.0,0.57,223.0,1.01,13.44,47.59359,-54.27349
2023-01-13 16:14:00+00:00,211.0,0.66,207.0,0.99,13.29,47.59359,-54.27349
2023-01-13 16:24:00+00:00,170.0,1.13,169.0,1.5,13.29,47.59359,-54.27349
2023-01-13 16:34:00+00:00,153.0,0.68,161.0,1.07,13.29,47.59359,-54.27349
2023-01-13 16:44:00+00:00,125.0,1.61,101.0,4.88,13.29,47.59359,-54.27349
2023-01-13 16:54:00+00:00,132.0,0.84,121.0,1.11,13.29,47.59359,-54.27349
2023-01-13 17:04:00+00:00,121.0,1.89,106.0,5.4,13.29,47.59359,-54.27349
2023-01-13 17:14:01+00:00,135.0,1.11,123.0,1.86,13.37,47.59359,-54.27349
2023-01-13 17:24:01+00:00,148.0,1.0,167.0,1.4,13.37,47.59359,-54.27349
2023-01-13 17:34:01+00:00,178.0,1.44,186.0,2.03,13.37,47.59359,-54.27349
2023-01-13 17:44:01+00:00,180.0,1.36,173.0,2.16,13.37,47.59359,-54.27349
2023-01-13 17:54:01+00:00,165.0,1.93,167.0,2.5,13.37,47.59359,-54.27349
2023-01-13 18:04:01+00:00,197.0,2.71,225.0,3.8,13.37,47.59359,-54.27349
2023-01-13 18:14:01+00:00,211.0,5.68,212.0,6.72,13.05,47.59359,-54.27349
2023-01-13 18:24:01+00:00,216.0,5.88,220.0,6.47,13.05,47.59359,-54.27349
2023-01-13 18:34:01+00:00,207.0,8.89,205.0,10.31,13.05,47.59359,-54.27349
2023-01-13 18:44:01+00:00,212.0,9.48,215.0,10.89,13.05,47.59359,-54.27349
2023-01-13 18:54:01+00:00,208.0,8.72,208.0,9.97,13.05,47.59359,-54.27349
2023-01-13 19:04:01+00:00,200.0,9.72,195.0,11.25,13.05,47.59359,-54.27349
2023-01-13 19:14:01+00:00,203.0,9.44,202.0,10.42,12.73,47.59359,-54.27349
2023-01-13 19:24:01+00:00,200.0,8.49,199.0,10.0,12.73,47.59359,-54.27349
2023-01-13 19:34:01+00:00,194.0,9.83,196.0,10.76,12.73,47.59359,-54.27349
2023-01-13 19:44:01+00:00,205.0,9.71,206.0,10.63,12.73,47.59359,-54.27349
2023-01-13 19:54:01+00:00,207.0,8.2,199.0,9.79,12.73,47.59359,-54.27349
2023-01-13 20:04:01+00:00,201.0,9.4,202.0,10.3,12.73,47.59359,-54.27349
2023-01-13 20:14:00+00:00,201.0,10.1,206.0,11.5,12.49,47.59359,-54.27349
2023-01-13 20:24:00+00:00,203.0,10.98,201.0,11.81,12.49,47.59359,-54.27349
2023-01-13 20:34:00+00:00,196.0,9.83,197.0,11.1,12.49,47.59359,-54.27349
2023-01-13 20:44:00+00:00,198.0,9.57,200.0,10.7,12.49,47.59359,-54.27349
2023-01-13 20:54:00+00:00,192.0,10.87,193.0,12.29,12.49,47.59359,-54.27349
2023-01-13 21:04:00+00:00,190.0,9.26,195.0,10.38,12.49,47.59359,-54.27349
2023-01-13 21:14:01+00:00,195.0,10.14,198.0,11.26,12.41,47.59359,-54.27349
2023-01-13 21:24:01+00:00,188.0,9.36,188.0,10.91,12.41,47.59359,-54.27349
2023-01-13 21:34:01+00:00,194.0,10.5,194.0,11.11,12.41,47.59359,-54.27349
2023-01-13 21:44:01+00:00,187.0,10.02,188.0,11.07,12.41,47.59359,-54.27349
2023-01-13 21:54:01+00:00,183.0,7.96,187.0,9.38,12.41,47.59359,-54.27349
2023-01-13 22:04:01+00:00,177.0,8.59,186.0,9.98,12.41,47.59359,-54.27349
2023-01-13 22:14:00+00:00,185.0,9.57,191.0,11.14,12.41,47.59359,-54.27349
2023-01-13 22:24:00+00:00,182.0,9.03,187.0,10.25,12.41,47.59359,-54.27349
2023-01-13 22:34:00+00:00,183.0,8.42,184.0,9.6,12.41,47.59359,-54.27349
2023-01-13 22:44:00+00:00,183.0,10.55,186.0,11.31,12.41,47.59359,-54.27349
2023-01-13 22:54:00+00:00,178.0,8.57,181.0,9.62,12.41,47.59359,-54.27349
2023-01-13 23:04:00+00:00,182.0,8.87,185.0,10.3,12.41,47.59359,-54.27349
2023-01-13 23:14:00+00:00,179.0,9.46,185.0,10.69,12.41,47.59359,-54.27349
2023-01-13 23:24:00+00:00,175.0,8.74,172.0,10.64,12.41,47.59359,-54.27349
2023-01-13 23:34:00+00:00,175.0,9.02,174.0,10.62,12.41,47.59359,-54.27349
2023-01-13 23:44:00+00:00,177.0,9.69,171.0,11.27,12.41,47.59359,-54.27349
2023-01-13 23:54:00+00:00,177.0,9.99,176.0,11.96,12.41,47.59359,-54.27349
